Regional Weather Roundup
Issued by NWS Bismarck, ND

Home | Current Version | Previous Version | Text Only | Print | Product List | Glossary On
Versions: 1 2 3 4 5 6 7 8 9 10 11 12 13 14 15 16 17 18 19 20 21 22 23 24 25 26 27 28 29 30 31 32 33 34 35 36 37 38 39 40 41 42 43 44 45 46 47 48 49 50
000
ASUS43 KBIS 281102
RWRBIS

NWR BROADCAST TEXT
NATIONAL WEATHER SERVICE BISMARCK ND
600 AM CDT TUE JUL 28 2015

NOTE: "FAIR" INDICATES FEW OR NO CLOUDS BELOW 12,000 FEET WITH NO
SIGNIFICANT WEATHER AND/OR OBSTRUCTIONS TO VISIBILITY.


CITY           SKY/WX    TMP DP  RH WIND       PRES   REMARKS
WILLISTON      PTCLDY    60  54  80 SW22G31   29.58S
MINOT          CLOUDY    65  56  72 SW15G25   29.58R
MINOT AFB      CLOUDY    65  61  88 SW14G22   29.56R
BISMARCK       PTCLDY    62  56  80 W15       29.69R
DICKINSON      PTCLDY    56  50  80 W25G37    29.71R
GARRISON         N/A     63  56  78 W21G30    29.63R
HETTINGER ARPT CLEAR     55  48  77 W22G32    29.82R
JAMESTOWN      CLOUDY    68  63  84 S9        29.63R
HAZEN          CLOUDY    61  55  82 W22       29.67R
STANLEY        PTSUNNY   59  59 100 W28       29.59R
$$

CITY           SKY/WX    TMP DP  RH WIND       PRES   REMARKS
GRAND FORKS    LGT RAIN  73  71  93 SE26G40   29.56F
GRAND FORKS AF CLOUDY    75  70  83 S23G36    29.56F
DEVILS LAKE    CLOUDY    72  63  73 S8        29.55S
FARGO          LGT RAIN  71  69  93 E16       29.55F
CAVALIER       CLOUDY    73  72  94 S10G16    29.57R
GRAFTON        CLOUDY    75  73  94 SE25      29.56S
GWINNER        PTSUNNY   68  68 100 SW8       29.68R
LANGDON        PTSUNNY   73  72  94 SE9       29.58R
$$

CITY           SKY/WX    TMP DP  RH WIND       PRES   REMARKS
ABERDEEN       CLOUDY    68  65  90 SW14      29.70R
MOBRIDGE       MOCLDY    63  59  87 W13       29.73R
RAPID CITY     CLEAR     52  45  77 NW6       29.94R
GLASGOW        LGT RAIN  57  54  89 W24G30    29.61F
SIDNEY         MOCLDY    59  52  77 SW23G32   29.62S
WOLF POINT     CLOUDY    58  54  86 W25G33    29.60F
GLENDIVE       CLOUDY    55  52  88 W18G30    29.73F
MILES CITY     CLOUDY    56  46  69 W24G36    29.84R
BAKER          CLOUDY    56  47  71 W20G28    29.83S
$$

CITY           SKY/WX    TMP DP  RH WIND       PRES   REMARKS
BILLINGS       PTCLDY    55  38  52 W32G40    30.00R
GREAT FALLS    CLOUDY    51  45  79 SW15      30.04R
$$




USA.gov is the U.S. government's official web portal to all federal, state and local government web resources and services.